[[{"header":{"parameterUnit":"m.s-1","parameterCategory":1,"la1":30.2991,"la2":30.254,"lo1":-89.0895,"lo2":-89.0444,"dy":0.0017,"dx":0.0017,"nx":28,"ny":28,"refTime":"2025-05-16T09:00:00:Z","depth":0,"parameterNumber":2,"parameterNumberName":"U-component_of_WINDS"},"data":[0,0,0,0,0,0,0,0,0,0,0,0,0,0,0,0,0,0,0,0,0,0,0,0,0,0,0,0,0,0,0,0,0,0,0,0,0,0,0,0,0,0,0,0,0,0,0,0,0,0,0,0,0,0,0,0,0,0,1.3113,1.3113,0,1.3132,1.3132,1.3132,1.3078,1.3076,1.3075,1.3073,1.3095,1.3097,1.3099,0,0,0,0,0,0,0,0,0,0,0,0,0,1.3032,1.3034,1.3113,1.3113,1.3113,1.3132,1.3132,1.3132,1.3078,1.3076,1.3074,1.3072,1.3094,1.3097,1.31,0,0,0,0,0,0,0,0,0,0,0,0,0,1.3061,1.3034,1.3113,1.3089,1.3087,1.3132,1.3132,1.3132,1.3079,1.3076,1.3074,1.3071,1.3094,1.3097,1.31,1.317,0,0,1.311,1.3111,0,0,0,0,0,0,0,0,1.3059,1.3064,1.3092,1.309,1.3088,1.31,1.3111,1.3145,1.3079,1.3082,1.3073,1.307,1.3099,1.3102,1.3111,1.3171,1.3172,1.311,1.3112,1.3113,1.3114,0,0,0,0,0,0,0,1.3057,1.3063,1.312,1.3093,1.309,1.3077,1.3079,1.3117,1.3104,1.3081,1.3078,1.308,1.3097,1.3108,1.3111,1.3172,1.311,1.3113,1.3115,1.3116,1.3289,1.3291,0,0,0,0,0,0,1.3058,1.3061,1.312,1.3121,1.3067,1.3081,1.3082,1.3099,1.3104,1.3102,1.3082,1.3078,1.3103,1.3107,1.3111,1.3192,1.3113,1.3116,1.3118,1.3286,1.3289,1.3292,0,0,0,0,0,0,1.3057,1.3064,1.3119,1.309,1.3096,1.3085,1.3104,1.31,1.3111,1.3104,1.3102,1.3095,1.3102,1.3107,1.3155,1.3192,1.3118,1.3121,1.3283,1.3287,1.3291,1.3356,0,0,0,0,0,0,1.3055,1.3064,1.309,1.3091,1.3098,1.3162,1.3106,1.3103,1.3116,1.311,1.3116,1.3114,1.31,1.3151,1.3158,1.3195,1.3123,1.328,1.3285,1.329,1.335,1.3361,1.3371,0,0,0,0,0,1.3052,1.3109,1.3092,1.3099,1.313,1.3165,1.3169,1.315,1.3119,1.3145,1.3141,1.3114,1.3187,1.3156,1.3164,1.3203,1.3277,1.3283,1.3289,1.3345,1.3359,1.3371,0,0,0,0,0,0,1.3114,1.3108,1.309,1.3148,1.3157,1.3155,1.3188,1.3165,1.3184,1.3178,1.3155,1.3157,1.3209,1.3211,1.3176,1.327,1.3227,1.3235,1.3267,1.328,1.329,1.3288,1.3126,0,0,0,0,0,1.3134,1.3161,1.3156,1.3208,1.3213,1.32,1.3214,1.3199,1.3208,1.3211,1.3211,1.3221,1.3246,1.3263,1.3286,1.335,1.335,1.338,1.3391,1.3399,1.3407,1.3439,1.3452,1.3312,1.3312,1.3312,0,0,1.3176,1.3177,1.3196,1.322,1.3225,1.3254,1.3204,1.3237,1.3258,1.3217,1.3262,1.3262,1.3271,1.3327,1.3352,1.3331,1.3445,1.3407,1.3414,1.3416,1.3447,1.346,1.3472,1.3316,1.3315,1.3315,0,0,1.3268,1.3272,1.3315,1.332,1.3328,1.3319,1.3329,1.3331,1.3328,1.3373,1.3342,1.3367,1.3411,1.3418,1.3428,1.3521,1.3497,1.3529,1.3584,1.3616,1.3627,1.3636,1.3668,1.368,1.3536,1.3537,1.3537,0,1.332,1.3362,1.334,1.3375,1.3386,1.3348,1.3391,1.3398,1.3414,1.3423,1.3398,1.345,1.3455,1.3511,1.3533,1.3543,1.3554,1.3528,1.3627,1.3636,1.3645,1.3675,1.3688,1.354,1.354,1.354,1.3539,0,1.3425,1.3455,1.3489,1.3503,1.3518,1.3557,1.3541,1.3559,1.3542,1.3535,1.358,1.3583,1.3605,1.3617,1.3602,1.3672,1.3658,1.363,1.3587,1.3662,1.3691,1.3702,1.3546,1.3544,1.3543,1.3542,0,0,1.3558,1.3557,1.357,1.3575,1.358,1.3603,1.364,1.366,1.3675,1.3687,1.3717,1.3754,1.3728,1.3739,1.3724,1.3752,1.3824,1.3721,1.3721,1.3739,1.3899,1.3919,1.3933,1.3808,1.381,1.3811,1.3898,0,1.3647,1.3709,1.369,1.3753,1.3779,1.3743,1.3775,1.3781,1.3776,1.3798,1.3792,1.3818,1.3782,1.3788,1.3814,1.381,1.3856,1.3803,1.3835,1.3837,1.3833,1.3948,1.397,1.4051,1.3909,1.3911,1.3912,0,1.376,1.3774,1.384,1.3838,1.3849,1.3878,1.3893,1.3915,1.3922,1.3915,1.3927,1.3905,1.3941,1.3898,1.3947,1.3911,1.3923,1.3923,1.3926,1.3928,1.3879,1.3953,1.4077,1.4089,1.393,1.3928,1.3927,0,1.3849,1.3884,1.3927,1.3933,1.3933,1.3954,1.3955,1.3959,1.3972,1.3986,1.3994,1.4013,1.4023,1.4038,1.4022,1.3992,1.4074,1.4029,1.4069,1.407,1.4088,1.4087,1.4216,1.4097,1.4097,1.4097,1.4096,0,1.395,1.3991,1.3967,1.3993,1.4038,1.4015,1.406,1.4057,1.406,1.4086,1.4056,1.4081,1.4058,1.4081,1.4069,1.4111,1.4116,1.4112,1.4108,1.4114,1.4115,1.4122,1.4115,1.41,1.4099,1.4099,1.4098,0,1.4057,1.4042,1.4086,1.4082,1.4081,1.4115,1.4111,1.4135,1.4127,1.4159,1.4166,1.4153,1.4178,1.4163,1.4189,1.4181,1.4235,1.4224,1.4233,1.4229,1.427,1.4266,1.4408,1.4425,1.4296,1.4297,1.4298,0,1.4122,1.4152,1.4151,1.4165,1.4167,1.4191,1.4203,1.4182,1.4196,1.4204,1.4228,1.425,1.4266,1.4307,1.4301,1.432,1.4309,1.4357,1.4312,1.4316,1.4309,1.4307,1.4309,1.4366,1.4368,1.4369,1.437,0,1.4239,1.423,1.4248,1.4264,1.4279,1.429,1.43,1.4313,1.4291,1.4309,1.4333,1.4345,1.4371,1.4393,1.4409,1.4411,1.4387,1.4384,1.4394,1.4401,1.4404,1.4401,1.4257,1.4381,1.438,1.4379,1.4378,1.4378,1.4326,1.4351,1.4353,1.4374,1.4378,1.4387,1.4409,1.4403,1.4422,1.444,1.4427,1.4455,1.446,1.4479,1.4483,1.4505,1.4486,1.4501,1.4505,1.4509,1.4514,1.4401,1.4509,1.4508,1.4508,1.4508,1.4507,0,1.4441,1.444,1.446,1.4472,1.4489,1.4464,1.4472,1.4488,1.4513,1.4519,1.4535,1.4562,1.4583,1.4577,1.4596,1.4615,1.4604,1.4621,1.4619,1.4619,1.4531,1.4519,1.4629,1.4629,1.4629,1.4629,1.4628,1.4628,1.4503,1.4542,1.4533,1.4575,1.4574,1.46,1.4607,1.4615,1.4619,1.4651,1.4667,1.4663,1.4664,1.4682,1.47,1.4698,1.4706,1.4726,1.472,1.4638,1.4626,1.4614,1.4603,1.4728,1.4728,1.4806,1.4807,1.4808]},{"header":{"parameterUnit":"m.s-1","parameterCategory":1,"la1":30.2991,"la2":30.254,"lo1":-89.0895,"lo2":-89.0444,"dy":0.0017,"dx":0.0017,"nx":28,"ny":28,"refTime":"2025-05-16T09:00:00:Z","depth":0,"parameterNumber":3,"parameterNumberName":"V-component_of_WINDS"},"data":[0,0,0,0,0,0,0,0,0,0,0,0,0,0,0,0,0,0,0,0,0,0,0,0,0,0,0,0,0,0,0,0,0,0,0,0,0,0,0,0,0,0,0,0,0,0,0,0,0,0,0,0,0,0,0,0,0,0,5.1249,5.125,0,5.1368,5.1369,5.137,5.1341,5.1338,5.1336,5.1334,5.1451,5.1456,5.1461,0,0,0,0,0,0,0,0,0,0,0,0,0,5.0991,5.0996,5.1249,5.125,5.1252,5.1368,5.1369,5.1371,5.1341,5.1338,5.1335,5.1333,5.1449,5.1455,5.1462,0,0,0,0,0,0,0,0,0,0,0,0,0,5.1106,5.0998,5.1248,5.1251,5.1252,5.1367,5.1369,5.1371,5.1342,5.1338,5.1335,5.1331,5.1447,5.1455,5.1463,5.1581,0,0,5.1487,5.149,0,0,0,0,0,0,0,0,5.1099,5.1115,5.1249,5.1251,5.1253,5.1336,5.1321,5.1441,5.1342,5.1308,5.1334,5.133,5.1415,5.1425,5.1455,5.1586,5.1591,5.1487,5.1492,5.1496,5.1498,0,0,0,0,0,0,0,5.1091,5.111,5.1296,5.1251,5.1253,5.1245,5.1257,5.1344,5.1379,5.131,5.1308,5.1323,5.1415,5.1448,5.1458,5.1593,5.1487,5.1494,5.1499,5.1502,5.1828,5.1831,0,0,0,0,0,0,5.1083,5.1104,5.1292,5.1299,5.1166,5.1252,5.1266,5.1313,5.1378,5.1385,5.1326,5.1321,5.1436,5.1449,5.1462,5.1605,5.1496,5.1503,5.1508,5.1824,5.1829,5.1833,0,0,0,0,0,0,5.1077,5.11,5.1287,5.1201,5.1224,5.126,5.1313,5.1317,5.1349,5.139,5.1396,5.1353,5.1434,5.1451,5.1552,5.1609,5.1507,5.1514,5.1819,5.1825,5.1831,5.1893,0,0,0,0,0,0,5.107,5.1098,5.1144,5.1202,5.1229,5.1377,5.1316,5.1322,5.1363,5.1358,5.1417,5.1423,5.1432,5.154,5.156,5.1618,5.152,5.1814,5.1822,5.1829,5.1886,5.19,5.1912,0,0,0,0,0,5.1061,5.1156,5.1147,5.117,5.1288,5.138,5.1395,5.1405,5.1368,5.1414,5.1441,5.1421,5.1599,5.1551,5.1573,5.1634,5.1811,5.182,5.1828,5.188,5.1897,5.1912,0,0,0,0,0,0,5.1102,5.1163,5.1154,5.1271,5.1321,5.1375,5.1434,5.1423,5.1483,5.1476,5.1484,5.1497,5.1601,5.1627,5.1572,5.1752,5.1699,5.1713,5.1731,5.1748,5.1761,5.1752,5.1526,0,0,0,0,0,5.1125,5.1196,5.1245,5.1343,5.1369,5.1397,5.1438,5.1441,5.1493,5.1513,5.1547,5.1596,5.1663,5.1707,5.1771,5.1889,5.1901,5.1942,5.1955,5.1966,5.1977,5.2042,5.2061,5.1862,5.1862,5.1861,0,0,5.1172,5.1214,5.1258,5.1353,5.1392,5.1464,5.1415,5.1493,5.1547,5.1524,5.1623,5.1649,5.1705,5.1815,5.1866,5.184,5.2035,5.1977,5.1985,5.1991,5.2053,5.2072,5.2089,5.1868,5.1866,5.1866,0,0,5.1295,5.1335,5.1422,5.1462,5.1523,5.1541,5.1562,5.1618,5.1635,5.1735,5.1719,5.1782,5.1898,5.1938,5.1973,5.2114,5.2098,5.2134,5.2203,5.2266,5.2282,5.2296,5.2346,5.2364,5.2145,5.2145,5.2145,0,5.1346,5.1456,5.1467,5.1548,5.1589,5.1574,5.1661,5.1699,5.1777,5.1806,5.1776,5.1922,5.1958,5.2078,5.2112,5.2142,5.2165,5.2127,5.2279,5.2293,5.2306,5.2354,5.2373,5.2149,5.2149,5.2148,5.2148,0,5.1516,5.1593,5.1655,5.1733,5.1781,5.1865,5.1887,5.1934,5.1934,5.1955,5.2056,5.2099,5.2172,5.22,5.22,5.2321,5.2303,5.2277,5.2224,5.2329,5.2374,5.2393,5.2155,5.2154,5.2153,5.2152,0,0,5.1668,5.1751,5.1774,5.1809,5.1875,5.1934,5.2016,5.209,5.213,5.2184,5.2253,5.2352,5.2328,5.2368,5.2372,5.2428,5.2536,5.2394,5.2395,5.2419,5.2673,5.2693,5.2714,5.2526,5.253,5.2533,5.2668,0,5.1797,5.1945,5.1957,5.2089,5.216,5.2147,5.2218,5.2266,5.2288,5.235,5.2373,5.2443,5.2406,5.2431,5.2485,5.2512,5.2587,5.2502,5.259,5.2593,5.2577,5.2737,5.2759,5.2885,5.2686,5.2689,5.2691,0,5.1968,5.203,5.217,5.2227,5.2257,5.2321,5.239,5.245,5.2503,5.2515,5.2561,5.2557,5.2641,5.2586,5.2701,5.2642,5.2679,5.2697,5.2702,5.2711,5.2648,5.2751,5.2925,5.2944,5.2719,5.2717,5.2715,0,5.2066,5.2183,5.2282,5.2313,5.2382,5.2427,5.2458,5.2508,5.2551,5.261,5.2639,5.2706,5.2743,5.2794,5.2809,5.2767,5.2923,5.2869,5.2935,5.2935,5.2969,5.2966,5.3152,5.2992,5.2992,5.2991,5.2991,0,5.2209,5.2295,5.2327,5.2388,5.2484,5.2497,5.2591,5.2618,5.2663,5.2728,5.272,5.2781,5.2796,5.286,5.2871,5.2965,5.2981,5.2993,5.2995,5.2994,5.2993,5.3018,5.301,5.2996,5.2995,5.2994,5.2993,0,5.2334,5.2359,5.2466,5.2523,5.254,5.2608,5.2656,5.2714,5.2735,5.2818,5.2838,5.287,5.2945,5.2965,5.3053,5.306,5.3171,5.3165,5.3154,5.3154,5.3219,5.3213,5.3427,5.3456,5.3277,5.3279,5.328,0,5.2425,5.2491,5.2556,5.26,5.2633,5.2704,5.2748,5.2763,5.281,5.2877,5.2927,5.3,5.306,5.318,5.321,5.3278,5.3273,5.3344,5.3283,5.3281,5.3275,5.3271,5.3278,5.3355,5.3357,5.3359,5.336,0,5.2582,5.2591,5.2657,5.2728,5.2783,5.2838,5.2892,5.2928,5.295,5.3003,5.308,5.3127,5.3218,5.3292,5.336,5.339,5.3379,5.3379,5.3398,5.3398,5.3389,5.3395,5.3186,5.3374,5.3372,5.3371,5.3371,5.337,5.2693,5.2751,5.2807,5.288,5.2923,5.2973,5.3031,5.306,5.3126,5.3203,5.3207,5.3291,5.3342,5.3434,5.3467,5.3532,5.3511,5.3538,5.3545,5.3552,5.3558,5.3379,5.3545,5.3544,5.3544,5.3544,5.3543,0,5.285,5.2885,5.2953,5.303,5.3088,5.3074,5.3133,5.3182,5.3256,5.3306,5.3366,5.3455,5.3527,5.3563,5.3634,5.3679,5.3676,5.3697,5.3694,5.3701,5.3573,5.355,5.3698,5.3698,5.3698,5.3698,5.3698,5.3698,5.2939,5.3038,5.3054,5.3173,5.3207,5.3291,5.3326,5.3372,5.3413,5.3513,5.3573,5.3597,5.3642,5.3716,5.378,5.3789,5.3816,5.384,5.3846,5.3726,5.371,5.3695,5.3673,5.3845,5.3846,5.3969,5.397,5.3971]}]]